Redmond, OR

4:05 AM PDT on July 28, 2017 (GMT -0700)
Roberts Field Airport

Weather History for KRDM - February, 2013

Change the Weather History Date:

Thursday, February 21, 2013

  Actual Average Record
Temperature  
Mean Temperature 32 °F 36 °F  
Max Temperature 41 °F 48 °F 68 °F (1988)
Min Temperature 23 °F 24 °F 10 °F (1952)
Degree Days  
Heating Degree Days 33 29  
Month to date heating degree days 626 634  
Since 1 July heating degree days 4271 4474  
Cooling Degree Days 0 0  
Month to date cooling degree days 0 0  
Year to date cooling degree days 0 0  
Moisture  
Dew Point 22 °F    
Average Humidity 66    
Maximum Humidity 88    
Minimum Humidity 44    
Precipitation  
Precipitation 0.00 in 0.03 in 0.96 in (1956)
Month to date precipitation T 0.50  
Year to date precipitation 0.41 1.47  
Sea Level Pressure  
Sea Level Pressure 30.12 in    
Wind  
Wind Speed 6 mph (SSW)    
Max Wind Speed 20 mph    
Max Gust Speed 23 mph    
Visibility 10 miles    
Events      
T = Trace of Precipitation, MM = Missing Value Source: NWS Daily Summary

Daily Weather History Graph

Daily Weather History Graph

Search for Another Location

Airport or City:

Trip Planner

Search our weather history database for the weather conditions in past years. The results will help you decide how hot, cold, wet, or windy it might be!

Date:

Astronomy

Feb. 21, 2013 Rise Set
Actual Time 6:54 AM PST 5:42 PM PST
Civil Twilight 6:24 AM PST 6:12 PM PST
Nautical Twilight 5:51 AM PST 6:45 PM PST
Astronomical Twilight 5:17 AM PST 7:19 PM PST
Moon 1:56 PM PST (2/21) 4:08 AM PST (2/21)
Length of Visible Light 11h 47m
Length of Day
10h 48m
Waxing Gibbous, 84% of the Moon is Illuminated
Feb 21
Waxing Gibbous
Feb 25
Full
Mar 4
Last Quarter
Mar 11
New
Mar 19
First Quarter

Hourly Weather History & Observations

Time (PST) Temp. Windchill Dew Point Humidity Pressure Visibility Wind Dir Wind Speed Gust Speed Precip Events Conditions
12:56 AM 28.9 °F 21.9 °F 24.1 °F 82% 30.05 in 10.0 mi SSW 6.9 mph - N/A   Overcast
1:56 AM 28.9 °F 25.2 °F 24.1 °F 82% 30.07 in 10.0 mi South 3.5 mph - N/A   Overcast
2:56 AM 28.9 °F 22.8 °F 24.1 °F 82% 30.08 in 10.0 mi SSE 5.8 mph - N/A   Overcast
4:56 AM 27.0 °F 21.6 °F 21.9 °F 81% 30.10 in 10.0 mi South 4.6 mph - N/A   Overcast
5:56 AM 25.0 °F 19.3 °F 21.0 °F 85% 30.11 in 10.0 mi South 4.6 mph - N/A   Mostly Cloudy
6:56 AM 24.1 °F 19.7 °F 19.9 °F 84% 30.13 in 10.0 mi SSE 3.5 mph - N/A   Clear
7:56 AM 28.0 °F 20.8 °F 21.0 °F 75% 30.12 in 10.0 mi South 6.9 mph - N/A   Clear
8:56 AM 34.0 °F 31.0 °F 24.1 °F 67% 30.13 in 10.0 mi South 3.5 mph - N/A   Partly Cloudy
10:56 AM 39.0 °F 29.6 °F 21.0 °F 49% 30.14 in 10.0 mi NW 18.4 mph - N/A   Overcast
11:56 AM 39.0 °F 35.7 °F 19.9 °F 46% 30.14 in 10.0 mi SSW 4.6 mph - N/A   Overcast
12:56 PM 39.0 °F 35.7 °F 19.0 °F 45% 30.13 in 10.0 mi WSW 4.6 mph - N/A   Overcast
1:56 PM 39.0 °F 33.4 °F 21.0 °F 49% 30.11 in 10.0 mi NW 8.1 mph - N/A   Overcast
2:56 PM 39.9 °F 33.9 °F 21.0 °F 47% 30.11 in 10.0 mi WNW 9.2 mph - N/A   Overcast
3:56 PM 39.9 °F 33.4 °F 21.0 °F 47% 30.11 in 10.0 mi West 10.4 mph - N/A   Overcast
4:56 PM 37.9 °F 30.5 °F 21.9 °F 53% 30.11 in 10.0 mi WNW 11.5 mph 16.1 mph N/A   Overcast
5:56 PM 37.0 °F 31.0 °F 21.9 °F 54% 30.12 in 10.0 mi West 8.1 mph - N/A   Overcast
6:56 PM 36.0 °F - 23.0 °F 59% 30.14 in 10.0 mi Calm Calm - N/A   Overcast
7:56 PM 34.0 °F 31.0 °F 24.1 °F 67% 30.16 in 10.0 mi SE 3.5 mph - N/A   Overcast
8:56 PM 34.0 °F 29.8 °F 25.0 °F 70% 30.14 in 10.0 mi East 4.6 mph - N/A   Overcast
9:56 PM 33.1 °F 30.0 °F 25.0 °F 72% 30.13 in 10.0 mi NE 3.5 mph - N/A   Overcast
10:56 PM 32.0 °F - 25.0 °F 75% 30.15 in 10.0 mi Calm Calm - N/A   Overcast
11:56 PM 30.9 °F - 25.0 °F 79% 30.14 in 10.0 mi Calm Calm - N/A   Scattered Clouds